Weather Roundup
Issued by NWS

Home | Current Version | Previous Version | Graphics & Text | Print | Product List | Glossary Off
Versions: 1 2 3 4 5 6 7 8 9 10 11 12 13 14 15 16 17 18 19 20 21 22 23 24 25 26 27 28 29 30 31 32 33 34 35 36 37 38 39 40 41 42 43 44 45 46 47 48 49 50

000
NZUS93 KARX 301859
HRRWXR

CURRENT HOURLY OBSERVATIONS ACROSS
MUCH OF THE UPPER MISSISSIPPI VALLEY
NATIONAL WEATHER SERVICE LA CROSSE WI
200 PM CDT TUE SEP 30 2014


...SOUTHEAST MINNESOTA...


CITY           SKY/WX    TMP DP  RH WIND       PRES   REMARKS
ROCHESTER      CLOUDY    54  46  74 E10       30.00F
ROCHESTER/MAYO FAIR      53  42  66 E9        30.00F
WINONA         MOSUNNY   52  43  71 E7        30.04F
AUSTIN         CLOUDY    55  48  76 SE10      29.97F
ALBERT LEA     CLOUDY    57  50  77 SE9G18    29.95F
DODGE CENTER   CLOUDY    55  45  67 SE13      29.98F
PRESTON        CLOUDY    53  44  72 SE9       30.01F
OWATONNA       CLOUDY    55  45  67 E14       29.96F
FARIBAULT      CLOUDY    55  45  67 E8        29.97F
$$

...ELSEWHERE IN MINNESOTA...


CITY           SKY/WX    TMP DP  RH WIND       PRES   REMARKS
MINNEAPOLIS    PTSUNNY   55  42  61 E13       29.98F
INTNL FALLS    MOSUNNY   51  42  71 SE12      29.99F
DULUTH         NOT AVBL
RED WING       PTSUNNY   55  43  62 SE10      30.00F
REDWOOD FALLS  CLOUDY    56  47  71 SE15G24   29.89F
MANKATO        CLOUDY    55  45  67 SE15G22   29.94F
WORTHINGTON    CLOUDY    61  54  77 SE15      29.85F
FAIRMONT       PTSUNNY   63  50  63 SE14      29.90F
$$

...SOUTHWEST WISCONSIN...


CITY           SKY/WX    TMP DP  RH WIND       PRES   REMARKS
LA CROSSE      CLOUDY    54  43  66 E6        30.04F
PRAIRIE DU CHI PTSUNNY   55  43  65 NE5       30.03F
BOSCOBEL       CLOUDY    51  42  71 SE7       30.05F
LONE ROCK      NOT AVBL
PLATTEVILLE    MOSUNNY   53  44  73 E7        30.05F
FORT MC COY    PTSUNNY   51  40  68 E7        30.07F
VIROQUA        MOCLDY    53  43  66 E7        30.04F
WIS DELLS      CLOUDY    47  40  76 E3        30.08S
$$

...ELSEWHERE IN WISCONSIN...


CITY           SKY/WX    TMP DP  RH WIND       PRES   REMARKS
MILWAUKEE      PTSUNNY   53  45  74 N14       30.06F
MADISON        CLOUDY    49  42  77 NE8       30.06F
GREEN BAY      CLOUDY    49  43  80 NE5       30.09F
EAU CLAIRE     NOT AVBL
BLACK RVR FLS  MOCLDY    52  40  63 E6        30.06F
MEDFORD        SUNNY     53  42  68 E6        30.05F
WAUSAU         SUNNY     51  41  68 E6        30.05F
WIS RAPIDS     CLOUDY    52  41  66 E7        30.08F
MARSHFIELD     PTSUNNY   51  42  71 SE8       30.05F
RICE LAKE      SUNNY     51  41  67 E7        30.05F
$$

...NORTHEAST IOWA...


CITY           SKY/WX    TMP DP  RH WIND       PRES   REMARKS
DECORAH        CLOUDY    54  45  71 E10       30.01F
MASON CITY     CLOUDY    57  51  80 SE13G22   29.97F
CHARLES CITY   CLOUDY    59  50  72 E13       29.99F
OELWEIN        CLOUDY    57  48  72 SE9G16    30.00F
$$

...ELSEWHERE IN IOWA...


CITY           SKY/WX    TMP DP  RH WIND       PRES   REMARKS
DES MOINES     PTSUNNY   64  57  78 E9        29.91F HAZE
IOWA CITY      CLOUDY    61  53  75 E10       29.99F
FORT DODGE     MOSUNNY   66  55  68 SE14G22   29.90F
$$

...NORTHERN ILLINOIS...


CITY           SKY/WX    TMP DP  RH WIND       PRES   REMARKS
CHICAGO-OHARE  PTSUNNY   56  45  66 NE9       30.03F
CHICAGO-MIDWAY NOT AVBL
MOLINE         NOT AVBL
ROCKFORD       PTSUNNY   56  44  64 N8        30.06F
PEORIA         MOSUNNY   68  53  58 VRB7      29.98F
$$

NOTE: "FAIR" INDICATES FEW OR NO CLOUDS BELOW 12,000 FEET WITH NO
SIGNIFICANT WEATHER AND/OR OBSTRUCTIONS TO VISIBILITY. WIND
SPEEDS ARE IN MILES-PER-HOUR.



USA.gov is the U.S. government's official web portal to all federal, state and local government web resources and services.